{"data":{"norad_id":56884,"intl_designator":"2023-083J","name":"STARLINK-5515","alt_names":[],"object_type":"PAYLOAD","status":"ACTIVE","operator":null,"country":"US","launch_date":"2023-06-12","launch_site_code":"AFETR","launch_vehicle":null,"mission":null,"orbit_class":"UNKNOWN","rcs_meters":null,"size_class":null,"mass_kg":null,"dimensions":null,"purposes":["comms"],"wikipedia_slug":null,"has_3d_model":false,"image_url":null,"decayed_at":null,"tle_current":{"epoch":"2026-05-24T23:43:00.791040Z","epoch_age_seconds":73315,"freshness":"FRESH","line1":"1 56884U 23083J   26144.98820360 -.00000119  00000+0  51952-5 0  9998","line2":"2 56884  43.0038  13.9230 0001107 264.9929  95.0796 15.27577494163309","mean_motion":15.27577494,"eccentricity":0.0001107,"inclination_deg":43.0038,"raan_deg":13.923,"arg_perigee_deg":264.9929,"mean_anomaly_deg":95.0796,"bstar":5.1952e-6,"rev_number":16330,"period_min":94.266903358816,"perigee_km":482.29706578393,"apogee_km":483.81613404695,"semimajor_km":6861.1935999154,"source":"CELESTRAK","updated_at":"2026-05-25T13:38:18.168310Z"}}}